Year,Month,Day,Hour,Minute,Value (Times are PST for temperature in C)
2009,10,21,00,00,9.00
2009,10,21,00,01,9.00
2009,10,21,00,02,9.00
2009,10,21,00,03,9.00
2009,10,21,00,04,9.00
2009,10,21,00,05,9.00
2009,10,21,00,06,9.00
2009,10,21,00,07,9.00
2009,10,21,00,08,9.10
2009,10,21,00,09,9.10
2009,10,21,00,10,9.10
2009,10,21,00,11,9.10
2009,10,21,00,12,9.10
2009,10,21,00,17,9.10
2009,10,21,00,18,9.10
2009,10,21,00,19,9.10
2009,10,21,00,20,9.10
2009,10,21,00,21,9.10
2009,10,21,00,22,9.10
2009,10,21,00,23,9.10
2009,10,21,00,24,9.10
2009,10,21,00,25,9.10
2009,10,21,00,26,9.10
2009,10,21,00,27,9.10
2009,10,21,00,28,9.10
2009,10,21,00,29,9.10
2009,10,21,00,30,9.10
2009,10,21,00,31,9.10
2009,10,21,00,32,9.10
2009,10,21,00,33,9.10
2009,10,21,00,34,9.10
2009,10,21,00,35,9.20
2009,10,21,00,36,9.20
2009,10,21,00,37,9.20
2009,10,21,00,38,9.20
2009,10,21,00,39,9.20
2009,10,21,00,40,9.20
2009,10,21,00,41,9.20
2009,10,21,00,42,9.20
2009,10,21,00,43,9.20
2009,10,21,00,44,9.20
2009,10,21,00,45,9.20
2009,10,21,00,46,9.20
2009,10,21,00,47,9.20
2009,10,21,00,48,9.20
2009,10,21,00,49,9.20
2009,10,21,00,50,9.20
2009,10,21,00,51,9.20
2009,10,21,00,52,9.20
2009,10,21,00,53,9.20
2009,10,21,00,54,9.20
2009,10,21,00,55,9.20
2009,10,21,00,56,9.20
2009,10,21,00,57,9.20
2009,10,21,00,58,9.20
2009,10,21,00,59,9.20
2009,10,21,01,00,9.20
2009,10,21,01,01,9.20
2009,10,21,01,02,9.10
2009,10,21,01,03,9.10
2009,10,21,01,04,9.10
2009,10,21,01,05,9.10
2009,10,21,01,06,9.10
2009,10,21,01,07,9.10
2009,10,21,01,08,9.10
2009,10,21,01,09,9.10
2009,10,21,01,10,9.10
2009,10,21,01,11,9.10
2009,10,21,01,12,9.10
2009,10,21,01,13,9.10
2009,10,21,01,14,9.10
2009,10,21,01,15,9.10
2009,10,21,01,16,9.10
2009,10,21,01,17,9.10
2009,10,21,01,18,9.10
2009,10,21,01,19,9.10
2009,10,21,01,20,9.10
2009,10,21,01,21,9.10
2009,10,21,01,22,9.10
2009,10,21,01,23,9.10
2009,10,21,01,24,9.10
2009,10,21,01,25,9.10
2009,10,21,01,26,9.10
2009,10,21,01,27,9.10
2009,10,21,01,28,9.10
2009,10,21,01,29,9.10
2009,10,21,01,30,9.10
2009,10,21,01,31,9.10
2009,10,21,01,32,9.10
2009,10,21,01,33,9.00
2009,10,21,01,34,9.00
2009,10,21,01,35,9.00
2009,10,21,01,36,9.00
2009,10,21,01,37,9.00
2009,10,21,01,38,9.00
2009,10,21,01,39,9.00
2009,10,21,01,40,9.00
2009,10,21,01,41,9.00
2009,10,21,01,42,9.00
2009,10,21,01,43,9.00
2009,10,21,01,44,9.00
2009,10,21,01,45,9.00
2009,10,21,01,46,9.00
2009,10,21,01,47,8.90
2009,10,21,01,48,8.90
2009,10,21,01,49,8.90
2009,10,21,01,50,8.90
2009,10,21,01,51,8.90
2009,10,21,01,52,8.90
2009,10,21,01,53,8.90
2009,10,21,01,54,8.90
2009,10,21,01,55,8.90
2009,10,21,01,56,8.90
2009,10,21,01,57,8.90
2009,10,21,01,58,8.90
2009,10,21,01,59,8.90
2009,10,21,02,00,8.90
2009,10,21,02,01,8.90
2009,10,21,02,02,8.90
2009,10,21,02,03,8.90
2009,10,21,02,04,8.90
2009,10,21,02,05,8.90
2009,10,21,02,06,8.90
2009,10,21,02,07,8.90
2009,10,21,02,08,8.90
2009,10,21,02,09,8.90
2009,10,21,02,10,8.90
2009,10,21,02,11,8.90
2009,10,21,02,12,8.90
2009,10,21,02,13,8.90
2009,10,21,02,14,8.90
2009,10,21,02,15,8.90
2009,10,21,02,16,8.90
2009,10,21,02,17,8.90
2009,10,21,02,18,8.90
2009,10,21,02,19,8.90
2009,10,21,02,20,8.90
2009,10,21,02,21,8.90
2009,10,21,02,22,8.90
2009,10,21,02,23,8.90
2009,10,21,02,24,8.90
2009,10,21,02,25,8.90
2009,10,21,02,26,8.90
2009,10,21,02,27,9.00
2009,10,21,02,28,9.00
2009,10,21,02,29,9.00
2009,10,21,02,30,9.00
2009,10,21,02,31,9.00
2009,10,21,02,32,9.00
2009,10,21,02,33,9.00
2009,10,21,02,34,9.00
2009,10,21,02,35,9.00
2009,10,21,02,36,9.00
2009,10,21,02,37,9.00
2009,10,21,02,38,9.00
2009,10,21,02,39,9.00
2009,10,21,02,40,9.00
2009,10,21,02,41,9.00
2009,10,21,02,42,9.00
2009,10,21,02,43,9.00
2009,10,21,02,44,9.00
2009,10,21,02,45,9.00
2009,10,21,02,46,9.00
2009,10,21,02,47,9.00
2009,10,21,02,48,9.00
2009,10,21,02,49,9.00
2009,10,21,02,50,8.90
2009,10,21,02,51,8.90
2009,10,21,02,52,8.90
2009,10,21,02,53,8.90
2009,10,21,02,54,8.90
2009,10,21,06,00,9.40
2009,10,21,06,01,9.40
2009,10,21,06,02,9.40
2009,10,21,06,03,9.40
2009,10,21,06,04,9.40
2009,10,21,06,05,9.40
2009,10,21,06,06,9.40
2009,10,21,06,07,9.40
2009,10,21,06,08,9.40
2009,10,21,06,09,9.40
2009,10,21,06,10,9.40
2009,10,21,06,11,9.40
2009,10,21,06,12,9.40
2009,10,21,06,13,9.40
2009,10,21,06,14,9.40
2009,10,21,06,15,9.40
2009,10,21,06,16,9.40
2009,10,21,06,17,9.40
2009,10,21,06,18,9.40
2009,10,21,06,19,9.40
2009,10,21,06,20,9.40
2009,10,21,06,21,9.40
2009,10,21,06,22,9.40
2009,10,21,06,23,9.40
2009,10,21,06,24,9.40
2009,10,21,06,25,9.40
2009,10,21,06,26,9.40
2009,10,21,06,27,9.40
2009,10,21,06,28,9.40
2009,10,21,06,29,9.40
2009,10,21,06,30,9.40
2009,10,21,06,31,9.40
2009,10,21,06,32,9.40
2009,10,21,06,33,9.40
2009,10,21,06,34,9.40
2009,10,21,06,35,9.40
2009,10,21,06,36,9.30
2009,10,21,06,37,9.40
2009,10,21,06,38,9.40
2009,10,21,06,39,9.40
2009,10,21,06,40,9.30
2009,10,21,06,41,9.30
2009,10,21,06,42,9.40
2009,10,21,06,43,9.30
2009,10,21,06,44,9.40
2009,10,21,06,45,9.40
2009,10,21,06,46,9.30
2009,10,21,06,47,9.40
2009,10,21,06,48,9.30
2009,10,21,06,49,9.30
2009,10,21,06,50,9.30
2009,10,21,06,51,9.30
2009,10,21,06,52,9.30
2009,10,21,06,53,9.30
2009,10,21,06,54,9.30
2009,10,21,06,55,9.30
2009,10,21,06,56,9.30
2009,10,21,06,57,9.30
2009,10,21,06,58,9.40
2009,10,21,06,59,9.40
2009,10,21,07,00,9.40
2009,10,21,07,01,9.40
2009,10,21,07,02,9.40
2009,10,21,07,03,9.40
2009,10,21,07,04,9.40
2009,10,21,07,05,9.30
2009,10,21,07,06,9.30
2009,10,21,07,07,9.30
2009,10,21,07,08,9.30
2009,10,21,07,09,9.30
2009,10,21,07,10,9.30
2009,10,21,07,11,9.30
2009,10,21,07,12,9.30
2009,10,21,07,13,9.30
2009,10,21,07,14,9.30
2009,10,21,07,15,9.30
2009,10,21,07,16,9.30
2009,10,21,07,17,9.30
2009,10,21,07,18,9.30
2009,10,21,07,19,9.30
2009,10,21,07,20,9.30
2009,10,21,07,21,9.30
2009,10,21,07,22,9.30
2009,10,21,07,23,9.30
2009,10,21,07,24,9.30
2009,10,21,07,25,9.30
2009,10,21,07,26,9.30
2009,10,21,07,27,9.30
2009,10,21,07,28,9.30
2009,10,21,07,29,9.30
2009,10,21,07,30,9.30
2009,10,21,07,31,9.30
2009,10,21,07,32,9.30
2009,10,21,07,33,9.30
2009,10,21,07,34,9.30
2009,10,21,07,35,9.30
2009,10,21,07,36,9.30
2009,10,21,07,37,9.30
2009,10,21,07,38,9.30
2009,10,21,07,39,9.30
2009,10,21,07,40,9.30
2009,10,21,07,41,9.30
2009,10,21,07,42,9.30
2009,10,21,07,43,9.30
2009,10,21,07,44,9.30
2009,10,21,07,45,9.30
2009,10,21,07,46,9.30
2009,10,21,07,47,9.30
2009,10,21,07,48,9.30
2009,10,21,07,49,9.30
2009,10,21,07,50,9.30
2009,10,21,07,51,9.30
2009,10,21,07,52,9.30
2009,10,21,07,53,9.30
2009,10,21,07,54,9.30
2009,10,21,07,55,9.30
2009,10,21,07,56,9.30
2009,10,21,07,57,9.30
2009,10,21,07,58,9.30
2009,10,21,07,59,9.30
2009,10,21,08,00,9.30
2009,10,21,08,01,9.30
2009,10,21,08,02,9.30
2009,10,21,08,03,9.30
2009,10,21,08,04,9.30
2009,10,21,08,05,9.30
2009,10,21,08,06,9.30
2009,10,21,08,07,9.30
2009,10,21,08,08,9.30
2009,10,21,08,09,9.30
2009,10,21,08,10,9.30
2009,10,21,08,11,9.30
2009,10,21,08,12,9.30
2009,10,21,08,13,9.30
2009,10,21,08,14,9.30
2009,10,21,08,15,9.30
2009,10,21,08,16,9.30
2009,10,21,08,17,9.30
2009,10,21,08,18,9.30
2009,10,21,08,19,9.30
2009,10,21,08,20,9.30
2009,10,21,08,21,9.30
2009,10,21,08,22,9.30
2009,10,21,08,23,9.30
2009,10,21,08,24,9.30
2009,10,21,08,25,9.30
2009,10,21,08,26,9.30
2009,10,21,08,27,9.30
2009,10,21,08,28,9.30
2009,10,21,08,29,9.30
2009,10,21,08,30,9.30
2009,10,21,08,31,9.30
2009,10,21,08,32,9.30
2009,10,21,08,33,9.30
2009,10,21,08,34,9.30
2009,10,21,08,35,9.30
2009,10,21,08,36,9.30
2009,10,21,08,37,9.30
2009,10,21,08,38,9.30
2009,10,21,08,39,9.30
2009,10,21,08,40,9.30
2009,10,21,08,41,9.40
2009,10,21,08,42,9.40
2009,10,21,08,43,9.40
2009,10,21,08,44,9.40
2009,10,21,08,45,9.40
2009,10,21,08,46,9.40
2009,10,21,08,47,9.40
2009,10,21,08,48,9.40
2009,10,21,08,49,9.40
2009,10,21,08,50,9.40
2009,10,21,08,51,9.40
2009,10,21,08,52,9.40
2009,10,21,08,53,9.40
2009,10,21,08,54,9.40
2009,10,21,08,55,9.40
2009,10,21,08,56,9.40
2009,10,21,08,57,9.40
2009,10,21,08,58,9.40
2009,10,21,08,59,9.40
2009,10,21,09,00,9.40
2009,10,21,09,01,9.40
2009,10,21,09,02,9.40
2009,10,21,09,03,9.40
2009,10,21,09,04,9.40
2009,10,21,09,05,9.40
2009,10,21,09,06,9.40
2009,10,21,09,07,9.40
2009,10,21,09,08,9.40
2009,10,21,09,09,9.40
2009,10,21,09,10,9.40
2009,10,21,09,11,9.40
2009,10,21,09,12,9.50
2009,10,21,09,13,9.50
2009,10,21,09,14,9.50
2009,10,21,09,15,9.50
2009,10,21,09,16,9.50
2009,10,21,09,17,9.50
2009,10,21,09,18,9.60
2009,10,21,09,19,9.60
2009,10,21,09,20,9.60
2009,10,21,09,21,9.60
2009,10,21,09,22,9.60
2009,10,21,09,23,9.60
2009,10,21,09,24,9.60
2009,10,21,09,25,9.60
2009,10,21,09,26,9.60
2009,10,21,09,27,9.70
2009,10,21,09,28,9.70
2009,10,21,09,29,9.70
2009,10,21,09,30,9.70
2009,10,21,09,31,9.70
2009,10,21,09,32,9.70
2009,10,21,09,33,9.70
2009,10,21,09,34,9.70
2009,10,21,09,35,9.80
2009,10,21,09,36,9.80
2009,10,21,09,37,9.80
2009,10,21,09,38,9.80
2009,10,21,09,39,9.80
2009,10,21,09,40,9.80
2009,10,21,09,41,9.80
2009,10,21,09,42,9.80
2009,10,21,09,43,9.80
2009,10,21,09,44,9.80
2009,10,21,09,45,9.90
2009,10,21,09,46,9.90
2009,10,21,09,47,9.90
2009,10,21,09,48,9.90
2009,10,21,09,49,9.90
2009,10,21,09,50,9.90
2009,10,21,09,51,9.90
2009,10,21,09,52,9.90
2009,10,21,09,53,9.90
2009,10,21,09,54,10.00
2009,10,21,09,55,9.90
2009,10,21,09,56,9.90
2009,10,21,09,57,10.00
2009,10,21,09,58,10.00
2009,10,21,09,59,10.00
2009,10,21,10,00,10.00
2009,10,21,10,01,10.00
2009,10,21,10,02,10.00
2009,10,21,10,03,10.10
2009,10,21,10,04,10.10
2009,10,21,10,05,10.10
2009,10,21,10,06,10.10
2009,10,21,10,07,10.00
2009,10,21,10,08,10.00
2009,10,21,10,09,10.10
2009,10,21,10,10,10.10
2009,10,21,10,11,10.10
2009,10,21,10,12,10.10
2009,10,21,10,13,10.20
2009,10,21,10,14,10.20
2009,10,21,10,15,10.20
2009,10,21,10,16,10.30
2009,10,21,10,17,10.30
2009,10,21,10,18,10.30
2009,10,21,10,19,10.30
2009,10,21,10,20,10.30
2009,10,21,10,21,10.30
2009,10,21,10,22,10.30
2009,10,21,10,23,10.30
2009,10,21,10,24,10.30
2009,10,21,10,25,10.30
2009,10,21,10,26,10.30
2009,10,21,10,27,10.30
2009,10,21,10,28,10.30
2009,10,21,10,29,10.30
2009,10,21,10,30,10.30
2009,10,21,10,31,10.30
2009,10,21,10,32,10.40
2009,10,21,10,33,10.40
2009,10,21,10,34,10.40
2009,10,21,10,35,10.40
2009,10,21,10,36,10.40
2009,10,21,10,37,10.40
2009,10,21,10,38,10.40
2009,10,21,10,39,10.40
2009,10,21,10,40,10.40
2009,10,21,10,41,10.40
2009,10,21,10,42,10.40
2009,10,21,10,43,10.40
2009,10,21,10,44,10.50
2009,10,21,10,45,10.50
2009,10,21,10,46,10.60
2009,10,21,10,47,10.60
2009,10,21,10,48,10.70
2009,10,21,10,49,10.70
2009,10,21,10,50,10.80
2009,10,21,10,51,10.80
2009,10,21,10,52,10.80
2009,10,21,10,53,10.90
2009,10,21,10,54,10.90
2009,10,21,10,55,10.90
2009,10,21,10,56,10.90
2009,10,21,10,57,10.90
2009,10,21,10,58,10.90
2009,10,21,10,59,11.00
2009,10,21,11,00,11.00
2009,10,21,11,01,11.00
2009,10,21,11,02,11.00
2009,10,21,11,03,11.00
2009,10,21,11,04,11.00
2009,10,21,11,05,11.10
2009,10,21,11,06,11.10
2009,10,21,11,07,11.10
2009,10,21,11,08,11.10
2009,10,21,11,09,11.00
2009,10,21,11,10,11.00
2009,10,21,11,11,11.00
2009,10,21,11,12,11.00
2009,10,21,11,13,10.90
2009,10,21,11,14,10.90
2009,10,21,11,15,10.90
2009,10,21,11,16,11.00
2009,10,21,11,17,11.00
2009,10,21,11,18,11.10
2009,10,21,11,19,11.20
2009,10,21,11,20,11.30
2009,10,21,11,21,11.40
2009,10,21,11,22,11.40
2009,10,21,11,23,11.50
2009,10,21,11,24,11.50
2009,10,21,11,25,11.60
2009,10,21,11,26,11.70
2009,10,21,11,27,11.80
2009,10,21,11,28,11.80
2009,10,21,11,29,11.90
2009,10,21,11,30,12.00
2009,10,21,11,31,12.00
2009,10,21,11,32,12.10
2009,10,21,11,33,12.10
2009,10,21,11,34,12.10
2009,10,21,11,35,12.10
2009,10,21,11,36,12.10
2009,10,21,11,37,12.10
2009,10,21,11,38,12.10
2009,10,21,11,39,12.00
2009,10,21,11,40,12.00
2009,10,21,11,41,12.00
2009,10,21,11,42,12.00
2009,10,21,11,43,12.00
2009,10,21,11,44,12.00
2009,10,21,11,45,12.10
2009,10,21,11,46,12.10
2009,10,21,11,47,12.20
2009,10,21,11,48,12.20
2009,10,21,11,49,12.20
2009,10,21,11,50,12.20
2009,10,21,11,51,12.20
2009,10,21,11,52,12.10
2009,10,21,11,53,12.10
2009,10,21,11,54,12.10
2009,10,21,11,55,12.10
2009,10,21,11,56,12.10
2009,10,21,11,57,12.10
2009,10,21,11,58,12.10
2009,10,21,11,59,12.10
2009,10,21,12,00,12.10
2009,10,21,12,01,12.20
2009,10,21,12,02,12.20
2009,10,21,12,03,12.20
2009,10,21,12,04,12.20
2009,10,21,12,05,12.20
2009,10,21,12,06,12.20
2009,10,21,12,07,12.20
2009,10,21,12,08,12.20
2009,10,21,12,09,12.30
2009,10,21,12,10,12.30
2009,10,21,12,11,12.30
2009,10,21,12,12,12.30
2009,10,21,12,13,12.40
2009,10,21,12,14,12.40
2009,10,21,12,15,12.40
2009,10,21,12,16,12.50
2009,10,21,12,17,12.50
2009,10,21,12,18,12.50
2009,10,21,12,19,12.50
2009,10,21,12,20,12.50
2009,10,21,12,21,12.50
2009,10,21,12,22,12.50
2009,10,21,12,23,12.50
2009,10,21,12,24,12.40
2009,10,21,12,25,12.40
2009,10,21,12,26,12.40
2009,10,21,12,27,12.40
2009,10,21,12,28,12.40
2009,10,21,12,29,12.50
2009,10,21,12,30,12.50
2009,10,21,12,31,12.50
2009,10,21,12,32,12.60
2009,10,21,12,33,12.60
2009,10,21,12,34,12.60
2009,10,21,12,35,12.60
2009,10,21,12,36,12.60
2009,10,21,12,37,12.60
2009,10,21,12,38,12.60
2009,10,21,12,39,12.60
2009,10,21,12,40,12.60
2009,10,21,12,41,12.50
2009,10,21,12,42,12.60
2009,10,21,12,43,12.60
2009,10,21,12,44,12.60
2009,10,21,12,45,12.60
2009,10,21,12,46,12.60
2009,10,21,12,47,12.60
2009,10,21,12,48,12.60
2009,10,21,12,49,12.50
2009,10,21,12,50,12.40
2009,10,21,12,51,12.40
2009,10,21,12,52,12.40
2009,10,21,12,53,12.40
2009,10,21,12,54,12.40
2009,10,21,12,55,12.40
2009,10,21,12,56,12.40
2009,10,21,12,57,12.40
2009,10,21,12,58,12.40
2009,10,21,12,59,12.40
2009,10,21,13,00,12.30
2009,10,21,13,01,12.30
2009,10,21,13,02,12.30
2009,10,21,13,03,12.20
2009,10,21,13,04,12.20
2009,10,21,13,05,12.20
2009,10,21,13,06,12.20
2009,10,21,13,07,12.20
2009,10,21,13,08,12.20
2009,10,21,13,09,12.20
2009,10,21,13,10,12.20
2009,10,21,13,11,12.20
2009,10,21,13,12,12.20
2009,10,21,13,13,12.20
2009,10,21,13,14,12.20
2009,10,21,13,15,12.20
2009,10,21,13,16,12.20
2009,10,21,13,17,12.20
2009,10,21,13,18,12.20
2009,10,21,13,19,12.20
2009,10,21,13,20,12.20
2009,10,21,13,21,12.20
2009,10,21,13,22,12.20
2009,10,21,13,23,12.20
2009,10,21,13,24,12.30
2009,10,21,13,25,12.30
2009,10,21,13,26,12.40
2009,10,21,13,27,12.40
2009,10,21,13,28,12.40
2009,10,21,13,29,12.40
2009,10,21,13,30,12.40
2009,10,21,13,31,12.40
2009,10,21,13,32,12.40
2009,10,21,13,33,12.40
2009,10,21,13,34,12.40
2009,10,21,13,35,12.40
2009,10,21,13,36,12.40
2009,10,21,13,37,12.30
2009,10,21,13,38,12.30
2009,10,21,13,39,12.30
2009,10,21,13,40,12.30
2009,10,21,13,41,12.30
2009,10,21,13,42,12.30
2009,10,21,13,43,12.30
2009,10,21,13,44,12.30
2009,10,21,13,45,12.30
2009,10,21,13,46,12.30
2009,10,21,13,47,12.30
2009,10,21,13,48,12.40
2009,10,21,13,49,12.40
2009,10,21,13,50,12.40
2009,10,21,13,51,12.40
2009,10,21,13,52,12.40
2009,10,21,13,53,12.50
2009,10,21,13,54,12.50
2009,10,21,13,55,12.60
2009,10,21,13,56,12.60
2009,10,21,13,57,12.70
2009,10,21,13,58,12.70
2009,10,21,13,59,12.80
2009,10,21,14,00,12.80
2009,10,21,14,01,12.80
2009,10,21,14,02,12.90
2009,10,21,14,03,12.90
2009,10,21,14,04,12.90
2009,10,21,14,05,13.00
2009,10,21,14,06,13.10
2009,10,21,14,07,13.10
2009,10,21,14,08,13.10
2009,10,21,14,09,13.20
2009,10,21,14,10,13.20
2009,10,21,14,11,13.20
2009,10,21,14,12,13.30
2009,10,21,14,13,13.30
2009,10,21,14,14,13.30
2009,10,21,14,15,13.30
2009,10,21,14,16,13.40
2009,10,21,14,17,13.40
2009,10,21,14,18,13.40
2009,10,21,14,19,13.50
2009,10,21,14,20,13.50
2009,10,21,14,21,13.50
2009,10,21,14,22,13.50
2009,10,21,14,23,13.60
2009,10,21,14,24,13.60
2009,10,21,14,25,13.60
2009,10,21,14,26,13.60
2009,10,21,14,27,13.70
2009,10,21,14,28,13.70
2009,10,21,14,29,13.70
2009,10,21,14,30,13.80
2009,10,21,14,31,13.80
2009,10,21,14,32,13.80
2009,10,21,14,33,13.80
2009,10,21,14,34,13.90
2009,10,21,14,35,13.90
2009,10,21,14,36,13.90
2009,10,21,14,37,13.90
2009,10,21,14,38,13.80
2009,10,21,14,39,13.80
2009,10,21,14,40,13.80
2009,10,21,14,41,13.80
2009,10,21,14,42,13.80
2009,10,21,14,43,13.90
2009,10,21,14,44,13.90
2009,10,21,14,45,14.00
2009,10,21,14,46,14.00
2009,10,21,14,47,14.10
2009,10,21,14,48,14.10
2009,10,21,14,49,14.20
2009,10,21,14,50,14.20
2009,10,21,14,51,14.20
2009,10,21,14,52,14.20
2009,10,21,14,53,14.20
2009,10,21,14,54,14.20
2009,10,21,14,55,14.10
2009,10,21,14,56,14.10
2009,10,21,14,57,14.00
2009,10,21,14,58,14.00
2009,10,21,14,59,14.00
2009,10,21,15,00,13.90
2009,10,21,15,01,13.90
2009,10,21,15,02,13.80
2009,10,21,15,03,13.80
2009,10,21,15,04,13.80
2009,10,21,15,05,13.80
2009,10,21,15,06,13.70
2009,10,21,15,07,13.70
2009,10,21,15,08,13.70
2009,10,21,15,09,13.70
2009,10,21,15,10,13.70
2009,10,21,15,11,13.70
2009,10,21,15,12,13.70
2009,10,21,15,13,13.70
2009,10,21,15,14,13.70
2009,10,21,15,15,13.70
2009,10,21,15,16,13.70
2009,10,21,15,17,13.80
2009,10,21,15,18,13.80
2009,10,21,15,19,13.90
2009,10,21,15,20,13.90
2009,10,21,15,21,14.00
2009,10,21,15,22,14.00
2009,10,21,15,23,14.00
2009,10,21,15,24,14.10
2009,10,21,15,25,14.10
2009,10,21,15,26,14.20
2009,10,21,15,27,14.20
2009,10,21,15,28,14.20
2009,10,21,15,29,14.20
2009,10,21,15,30,14.20
2009,10,21,15,31,14.20
2009,10,21,15,32,14.20
2009,10,21,15,33,14.30
2009,10,21,15,34,14.30
2009,10,21,15,35,14.30
2009,10,21,15,36,14.30
2009,10,21,15,37,14.40
2009,10,21,15,38,14.40
2009,10,21,15,39,14.40
2009,10,21,15,40,14.40
2009,10,21,15,41,14.40
2009,10,21,15,42,14.40
2009,10,21,15,43,14.50
2009,10,21,15,44,14.50
2009,10,21,15,45,14.50
2009,10,21,15,46,14.50
2009,10,21,15,47,14.50
2009,10,21,15,48,14.40
2009,10,21,15,49,14.40
2009,10,21,15,50,14.30
2009,10,21,15,51,14.30
2009,10,21,15,52,14.20
2009,10,21,15,53,14.20
2009,10,21,15,54,14.10
2009,10,21,15,55,14.00
2009,10,21,15,56,13.90
2009,10,21,15,57,13.80
2009,10,21,15,58,13.80
2009,10,21,15,59,13.70
2009,10,21,16,00,13.60
2009,10,21,16,01,13.50
2009,10,21,16,02,13.40
2009,10,21,16,03,13.40
2009,10,21,16,04,13.40
2009,10,21,16,05,13.30
2009,10,21,16,06,13.30
2009,10,21,16,07,13.30
2009,10,21,16,08,13.30
2009,10,21,16,09,13.30
2009,10,21,16,10,13.30
2009,10,21,16,11,13.30
2009,10,21,16,12,13.20
2009,10,21,16,13,13.20
2009,10,21,16,14,13.20
2009,10,21,16,15,13.20
2009,10,21,16,16,13.20
2009,10,21,16,17,13.20
2009,10,21,16,18,13.20
2009,10,21,16,19,13.20
2009,10,21,16,20,13.10
2009,10,21,16,21,13.10
2009,10,21,16,22,13.10
2009,10,21,16,23,13.10
2009,10,21,16,24,13.20
2009,10,21,16,25,13.20
2009,10,21,16,26,13.20
2009,10,21,16,27,13.10
2009,10,21,16,28,13.10
2009,10,21,16,29,13.10
2009,10,21,16,30,13.10
2009,10,21,16,31,13.10
2009,10,21,16,32,13.10
2009,10,21,16,33,13.10
2009,10,21,16,34,13.10
2009,10,21,16,35,13.10
2009,10,21,16,36,13.10
2009,10,21,16,37,13.10
2009,10,21,16,38,13.10
2009,10,21,16,39,13.10
2009,10,21,16,40,13.10
2009,10,21,16,41,13.10
2009,10,21,16,42,13.10
2009,10,21,16,43,13.10
2009,10,21,16,44,13.10
2009,10,21,16,45,13.20
2009,10,21,16,46,13.20
2009,10,21,16,47,13.30
2009,10,21,16,48,13.30
2009,10,21,16,49,13.30
2009,10,21,16,50,13.30
2009,10,21,16,51,13.30
2009,10,21,16,52,13.40
2009,10,21,16,53,13.30
2009,10,21,16,54,13.30
2009,10,21,16,55,13.30
2009,10,21,16,56,13.30
2009,10,21,16,57,13.30
2009,10,21,16,58,13.30
2009,10,21,16,59,13.20
2009,10,21,17,00,13.20
2009,10,21,17,01,13.20
2009,10,21,17,02,13.20
2009,10,21,17,03,13.20
2009,10,21,17,04,13.10
2009,10,21,17,05,13.10
2009,10,21,17,06,13.10
2009,10,21,17,07,13.10
2009,10,21,17,08,13.10
2009,10,21,17,09,13.00
2009,10,21,17,10,13.00
2009,10,21,17,11,12.90
2009,10,21,17,12,12.90
2009,10,21,17,13,12.90
2009,10,21,17,14,12.90
2009,10,21,17,15,12.90
2009,10,21,17,16,12.80
2009,10,21,17,17,12.80
2009,10,21,17,18,12.80
2009,10,21,17,19,12.80
2009,10,21,17,20,12.80
2009,10,21,17,21,12.70
2009,10,21,17,22,12.70
2009,10,21,17,23,12.70
2009,10,21,17,24,12.70
2009,10,21,17,25,12.60
2009,10,21,17,26,12.60
2009,10,21,17,27,12.60
2009,10,21,17,28,12.60
2009,10,21,17,29,12.50
2009,10,21,17,30,12.50
2009,10,21,17,31,12.40
2009,10,21,17,32,12.40
2009,10,21,17,33,12.40
2009,10,21,17,34,12.40
2009,10,21,17,35,12.40
2009,10,21,17,36,12.30
2009,10,21,17,37,12.30
2009,10,21,17,38,12.30
2009,10,21,17,39,12.20
2009,10,21,17,40,12.20
2009,10,21,17,41,12.20
2009,10,21,17,42,12.20
2009,10,21,17,43,12.10
2009,10,21,17,44,12.10
2009,10,21,17,45,12.10
2009,10,21,17,46,12.10
2009,10,21,17,47,12.00
2009,10,21,17,48,12.00
2009,10,21,17,49,11.90
2009,10,21,17,50,11.90
2009,10,21,17,51,11.90
2009,10,21,17,52,11.90
2009,10,21,17,53,11.90
2009,10,21,17,54,11.90
2009,10,21,17,55,11.80
2009,10,21,17,56,11.80
2009,10,21,17,57,11.80
2009,10,21,17,58,11.80
2009,10,21,17,59,11.80
2009,10,21,18,00,11.80
2009,10,21,18,01,11.80
2009,10,21,18,02,11.80
2009,10,21,18,03,11.80
2009,10,21,18,04,11.80
2009,10,21,18,05,11.80
2009,10,21,18,06,11.80
2009,10,21,18,07,11.80
2009,10,21,18,08,11.80
2009,10,21,18,09,11.80
2009,10,21,18,10,11.80
2009,10,21,18,11,11.80
2009,10,21,18,12,11.80
2009,10,21,18,13,11.80
2009,10,21,18,14,11.80
2009,10,21,18,15,11.80
2009,10,21,18,16,11.80
2009,10,21,18,17,11.80
2009,10,21,18,18,11.80
2009,10,21,18,19,11.80
2009,10,21,18,20,11.80
2009,10,21,18,21,11.80
2009,10,21,18,22,11.80
2009,10,21,18,23,11.80
2009,10,21,18,24,11.80
2009,10,21,18,25,11.80
2009,10,21,18,26,11.80
2009,10,21,18,27,11.80
2009,10,21,18,28,11.80
2009,10,21,18,29,11.70
2009,10,21,18,30,11.70
2009,10,21,18,31,11.70
2009,10,21,18,32,11.70
2009,10,21,18,33,11.70
2009,10,21,18,34,11.60
2009,10,21,18,35,11.60
2009,10,21,18,36,11.60
2009,10,21,18,37,11.50
2009,10,21,18,38,11.40
2009,10,21,18,39,11.40
2009,10,21,18,40,11.40
2009,10,21,18,41,11.40
2009,10,21,18,42,11.40
2009,10,21,18,43,11.30
2009,10,21,18,44,11.30
2009,10,21,18,45,11.30
2009,10,21,18,46,11.30
2009,10,21,18,47,11.30
2009,10,21,18,48,11.20
2009,10,21,18,49,11.20
2009,10,21,18,50,11.20
2009,10,21,18,51,11.20
2009,10,21,18,52,11.20
2009,10,21,18,53,11.20
2009,10,21,18,54,11.20
2009,10,21,18,55,11.20
2009,10,21,18,56,11.20
2009,10,21,18,57,11.20
2009,10,21,18,58,11.20
2009,10,21,18,59,11.20
2009,10,21,19,00,11.20
2009,10,21,19,01,11.20
2009,10,21,19,02,11.20
2009,10,21,19,03,11.20
2009,10,21,19,04,11.10
2009,10,21,19,05,11.10
2009,10,21,19,06,11.10
2009,10,21,19,07,11.10
2009,10,21,19,08,11.10
2009,10,21,19,09,11.10
2009,10,21,19,10,11.10
2009,10,21,19,11,11.10
2009,10,21,19,12,11.10
2009,10,21,19,13,11.00
2009,10,21,19,14,11.00
2009,10,21,19,15,11.00
2009,10,21,19,16,11.00
2009,10,21,19,17,11.00
2009,10,21,19,18,11.00
2009,10,21,19,19,11.00
2009,10,21,19,20,10.90
2009,10,21,19,21,10.90
2009,10,21,19,22,10.90
2009,10,21,19,23,10.90
2009,10,21,19,24,10.90
2009,10,21,19,25,10.90
2009,10,21,19,26,10.90
2009,10,21,19,27,10.90
2009,10,21,19,28,10.90
2009,10,21,19,29,10.90
2009,10,21,19,30,10.90
2009,10,21,19,31,11.00
2009,10,21,19,32,10.90
2009,10,21,19,33,10.90
2009,10,21,19,34,10.90
2009,10,21,19,35,11.00
2009,10,21,19,36,11.00
2009,10,21,19,37,11.00
2009,10,21,19,38,11.00
2009,10,21,19,39,11.00
2009,10,21,19,40,11.00
2009,10,21,19,41,11.00
2009,10,21,19,42,10.90
2009,10,21,19,43,10.90
2009,10,21,19,44,10.90
2009,10,21,19,45,10.90
2009,10,21,19,46,10.90
2009,10,21,19,47,10.90
2009,10,21,19,48,10.90
2009,10,21,19,49,10.90
2009,10,21,19,50,10.90
2009,10,21,19,51,10.90
2009,10,21,19,52,10.90
2009,10,21,19,53,10.90
2009,10,21,19,54,10.90
2009,10,21,19,55,10.80
2009,10,21,19,56,10.80
2009,10,21,19,57,10.80
2009,10,21,19,58,10.80
2009,10,21,19,59,10.80
2009,10,21,20,00,10.80
2009,10,21,20,01,10.80
2009,10,21,20,02,10.80
2009,10,21,20,03,10.80
2009,10,21,20,04,10.70
2009,10,21,20,05,10.70
2009,10,21,20,06,10.70
2009,10,21,20,07,10.70
2009,10,21,20,08,10.70
2009,10,21,20,09,10.70
2009,10,21,20,10,10.70
2009,10,21,20,11,10.70
2009,10,21,20,12,10.70
2009,10,21,20,13,10.70
2009,10,21,20,14,10.70
2009,10,21,20,15,10.70
2009,10,21,20,16,10.70
2009,10,21,20,17,10.70
2009,10,21,20,18,10.60
2009,10,21,20,19,10.70
2009,10,21,20,20,10.70
2009,10,21,20,21,10.70
2009,10,21,20,22,10.70
2009,10,21,20,23,10.70
2009,10,21,20,24,10.70
2009,10,21,20,25,10.70
2009,10,21,20,26,10.70
2009,10,21,20,27,10.70
2009,10,21,20,28,10.70
2009,10,21,20,29,10.70
2009,10,21,20,30,10.70
2009,10,21,20,31,10.70
2009,10,21,20,32,10.70
2009,10,21,20,33,10.70
2009,10,21,20,34,10.70
2009,10,21,20,35,10.70
2009,10,21,20,36,10.70
2009,10,21,20,37,10.70
2009,10,21,20,38,10.70
2009,10,21,20,39,10.70
2009,10,21,20,40,10.70
2009,10,21,20,41,10.70
2009,10,21,20,42,10.70
2009,10,21,20,43,10.70
2009,10,21,20,44,10.70
2009,10,21,20,45,10.70
2009,10,21,20,46,10.70